EW6378 Weather Reports


time (UTC)temp
C
wind
direction
speed
KPH
gust
KPH
rain 1hr
cm
rain 24hr
cm
rain mn
cm
humidity
%
barometer
mb
20260505041608 16 0 0.0 0.0 0.00 0.00 0.00 60 1010.9
20260505041059 16 0 0.0 0.0 0.00 0.00 0.00 61 1010.9
20260505040556 16 0 0.0 0.0 0.00 0.00 0.00 61 1010.9
20260505040106 16 0 0.0 0.0 0.00 0.00 0.00 61 1010.9
20260505035559 16 0 0.0 0.0 0.00 0.00 0.00 61 1010.8
20260505035056 16 0 0.0 0.0 0.00 0.00 0.00 61 1010.9
20260505034613 16 0 0.0 0.0 0.00 0.00 0.00 61 1010.9
20260505034056 16 0 0.0 0.0 0.00 0.00 0.00 61 1010.9
20260505033558 16 0 0.0 0.0 0.00 0.00 0.00 61 1011.0
20260505033100 17 0 0.0 0.0 0.00 0.00 0.00 61 1010.9
20260505032556 17 0 0.0 0.0 0.00 0.00 0.00 61 1010.9
20260505032057 17 0 0.0 0.0 0.00 0.00 0.00 61 1010.9
20260505031606 17 0 0.0 0.0 0.00 0.00 0.00 61 1010.9
20260505031057 17 0 0.0 0.0 0.00 0.00 0.00 61 1010.9
20260505030600 17 0 0.0 1.6 0.00 0.00 0.00 61 1010.9
20260505030127 17 0 0.0 1.6 0.00 0.00 0.00 62 1011.0
20260505025558 17 0 0.0 1.6 0.00 0.00 0.00 62 1011.0
20260505025059 17 0 0.0 0.0 0.00 0.00 0.00 61 1011.0
20260505024611 17 0 0.0 0.0 0.00 0.00 0.00 61 1011.0
20260505024058 17 0 0.0 0.0 0.00 0.00 0.00 61 1010.9
20260505023555 17 0 0.0 1.6 0.00 0.00 0.00 60 1011.0
20260505023058 17 0 0.0 1.6 0.00 0.00 0.00 60 1010.9
20260505022601 17 0 0.0 1.6 0.00 0.00 0.00 60 1010.9
20260505022058 17 0 0.0 0.0 0.00 0.00 0.00 59 1011.0
20260505021558 18 0 0.0 4.8 0.00 0.00 0.00 59 1010.9
20260505021057 18 0 0.0 4.8 0.00 0.00 0.00 59 1010.9
20260505020558 18 0 0.0 4.8 0.00 0.00 0.00 59 1010.9
20260505020108 18 0 0.0 3.2 0.00 0.00 0.00 59 1011.0
20260505015558 18 0 0.0 3.2 0.00 0.00 0.00 59 1010.9
20260505015100 18 0 0.0 1.6 0.00 0.00 0.00 59 1010.8
20260505014604 18 0 0.0 1.6 0.00 0.00 0.00 59 1010.7
20260505014057 18 0 0.0 1.6 0.00 0.00 0.00 59 1010.6
20260505013557 18 0 0.0 0.0 0.00 0.00 0.00 59 1010.7
20260505013054 18 0 0.0 0.0 0.00 0.00 0.00 59 1010.8
20260505012600 18 0 0.0 0.0 0.00 0.00 0.00 59 1010.8
20260505012058 18 0 0.0 0.0 0.00 0.00 0.00 59 1010.8
20260505011602 18 0 0.0 1.6 0.00 0.00 0.00 59 1010.7
20260505011059 18 0 0.0 1.6 0.00 0.00 0.00 59 1010.6
20260505010555 18 0 0.0 0.0 0.00 0.00 0.00 59 1010.6
20260505010111 18 0 0.0 0.0 0.00 0.00 0.00 59 1010.6
20260505005559 18 0 0.0 0.0 0.00 0.00 0.00 59 1010.4
20260505005059 18 0 0.0 0.0 0.00 0.00 0.00 58 1010.4
20260505004622 18 0 0.0 0.0 0.00 0.00 0.00 58 1010.2
20260505004057 18 0 0.0 0.0 0.00 0.00 0.00 57 1010.2
20260505003558 18 0 0.0 0.0 0.00 0.00 0.00 56 1010.4
20260505003102 18 0 0.0 0.0 0.00 0.00 0.00 56 1010.4
20260505002600 18 0 0.0 0.0 0.00 0.00 0.00 55 1010.3
20260505002058 18 0 0.0 0.0 0.00 0.00 0.00 54 1010.3
20260505001558 18 0 0.0 0.0 0.00 0.00 0.00 53 1010.3
20260505001058 18 0 0.0 1.6 0.00 0.00 0.00 53 1010.2
20260505000559 19 0 0.0 1.6 0.00 0.00 0.00 52 1010.3
20260505000111 19 0 0.0 1.6 0.00 0.00 0.00 51 1010.2
20260504235558 19 0 0.0 1.6 0.00 0.00 0.00 50 1010.2
20260504235058 20 0 0.0 1.6 0.00 0.00 0.00 49 1010.2
20260504234557 20 0 0.0 0.0 0.00 0.00 0.00 48 1010.3
20260504234058 20 0 0.0 0.0 0.00 0.00 0.00 48 1010.3
20260504233559 20 0 0.0 0.0 0.00 0.00 0.00 47 1010.3
20260504233059 20 0 0.0 1.6 0.00 0.00 0.00 47 1010.3
20260504232558 20 0 0.0 3.2 0.00 0.00 0.00 46 1010.3
20260504232057 20 0 0.0 3.2 0.00 0.00 0.00 46 1010.3
20260504231621 20 0 0.0 3.2 0.00 0.00 0.00 45 1010.2
20260504231057 20 0 0.0 1.6 0.00 0.00 0.00 45 1010.3
20260504230557 20 0 0.0 4.8 0.00 0.00 0.00 45 1010.4
20260504230058 21 0 0.0 4.8 0.00 0.00 0.00 44 1010.2
20260504225559 21 0 0.0 9.7 0.00 0.00 0.00 43 1010.2
20260504225058 21 0 0.0 9.7 0.00 0.00 0.00 44 1010.3
20260504224600 21 188 0.0 11.3 0.00 0.00 0.00 44 1010.2
20260504224058 21 0 0.0 11.3 0.00 0.00 0.00 43 1010.2
20260504223601 21 0 0.0 11.3 0.00 0.00 0.00 43 1010.3
20260504223058 21 0 0.0 12.9 0.00 0.00 0.00 43 1010.2
20260504222601 21 0 0.0 12.9 0.00 0.00 0.00 42 1010.2
20260504222058 22 0 0.0 9.7 0.00 0.00 0.00 41 1010.2
20260504221644 22 0 0.0 16.1 0.00 0.00 0.00 41 1010.1
20260504221057 22 0 0.0 16.1 0.00 0.00 0.00 40 1010.2
20260504220558 22 0 0.0 6.4 0.00 0.00 0.00 40 1010.2
20260504220059 22 192 0.0 6.4 0.00 0.00 0.00 40 1010.0
20260504215558 22 0 0.0 3.2 0.00 0.00 0.00 40 1010.2
20260504215059 22 0 0.0 3.2 0.00 0.00 0.00 39 1010.1
20260504214556 22 0 0.0 4.8 0.00 0.00 0.00 39 1010.1
20260504214057 22 0 0.0 8.0 0.00 0.00 0.00 39 1010.1
20260504213557 22 0 0.0 8.0 0.00 0.00 0.00 38 1010.1
20260504213101 23 0 0.0 4.8 0.00 0.00 0.00 38 1010.2
20260504212601 23 0 0.0 6.4 0.00 0.00 0.00 38 1010.2
20260504212057 23 0 0.0 6.4 0.00 0.00 0.00 38 1010.1
20260504211557 23 0 0.0 9.7 0.00 0.00 0.00 37 1010.2
20260504211058 23 0 0.0 9.7 0.00 0.00 0.00 37 1010.1
20260504210558 23 147 0.0 9.7 0.00 0.00 0.00 37 1010.2
20260504210058 23 0 0.0 3.2 0.00 0.00 0.00 36 1010.1
20260504205604 23 0 0.0 3.2 0.00 0.00 0.00 36 1010.1
20260504205058 24 0 0.0 3.2 0.00 0.00 0.00 35 1010.1
20260504204556 25 0 0.0 3.2 0.00 0.00 0.00 35 1010.2
20260504204058 24 0 0.0 3.2 0.00 0.00 0.00 32 1010.2
20260504203601 25 0 0.0 1.6 0.00 0.00 0.00 31 1010.3
20260504203058 25 0 0.0 14.5 0.00 0.00 0.00 32 1010.2
20260504202559 24 0 0.0 14.5 0.00 0.00 0.00 32 1010.3
20260504202058 24 0 0.0 0.0 0.00 0.00 0.00 32 1010.2
20260504201602 24 0 0.0 12.9 0.00 0.00 0.00 32 1010.4
20260504201058 24 0 0.0 12.9 0.00 0.00 0.00 32 1010.4
20260504200558 24 0 0.0 12.9 0.00 0.00 0.00 32 1010.6
20260504200057 24 0 0.0 4.8 0.00 0.00 0.00 32 1010.5
20260504195557 24 0 0.0 4.8 0.00 0.00 0.00 32 1010.6
20260504195057 24 0 0.0 14.5 0.00 0.00 0.00 32 1010.8
20260504194603 24 0 0.0 14.5 0.00 0.00 0.00 33 1010.8
20260504194057 24 0 0.0 3.2 0.00 0.00 0.00 34 1010.7
20260504193558 24 0 0.0 3.2 0.00 0.00 0.00 33 1011.0
20260504193057 24 0 0.0 4.8 0.00 0.00 0.00 33 1011.0
20260504192558 24 0 0.0 4.8 0.00 0.00 0.00 33 1011.0
20260504192059 24 0 0.0 3.2 0.00 0.00 0.00 34 1011.1
20260504191621 24 0 0.0 4.8 0.00 0.00 0.00 33 1011.1
20260504191058 23 0 0.0 4.8 0.00 0.00 0.00 35 1011.5
20260504190558 23 0 0.0 9.7 0.00 0.00 0.00 35 1011.4
20260504190109 23 0 0.0 9.7 0.00 0.00 0.00 35 1011.5
20260504185557 23 0 0.0 6.4 0.00 0.00 0.00 34 1011.6
20260504185057 23 0 0.0 3.2 0.00 0.00 0.00 33 1011.7
20260504184609 23 0 0.0 3.2 0.00 0.00 0.00 34 1011.7
20260504184058 23 209 0.0 4.8 0.00 0.00 0.00 32 1011.9
20260504183558 23 0 0.0 4.8 0.00 0.00 0.00 32 1011.9
20260504183055 23 0 0.0 4.8 0.00 0.00 0.00 32 1012.0
20260504182602 23 0 0.0 4.8 0.00 0.00 0.00 33 1011.9
20260504182057 23 0 0.0 6.4 0.00 0.00 0.00 32 1012.0
20260504181556 23 0 0.0 6.4 0.00 0.00 0.00 33 1012.0
20260504181058 23 0 0.0 6.4 0.00 0.00 0.00 31 1012.2
20260504180556 22 0 0.0 8.0 0.00 0.00 0.00 32 1012.1
20260504180059 23 293 0.0 8.0 0.00 0.00 0.00 33 1012.1
20260504175558 23 0 0.0 6.4 0.00 0.00 0.00 31 1012.3
20260504175058 22 0 0.0 3.2 0.00 0.00 0.00 33 1012.4
20260504174555 22 0 0.0 8.0 0.00 0.00 0.00 33 1012.4
20260504174058 22 0 0.0 8.0 0.00 0.00 0.00 33 1012.5
20260504173600 22 0 0.0 8.0 0.00 0.00 0.00 32 1012.5
20260504173056 22 0 0.0 6.4 0.00 0.00 0.00 33 1012.5
20260504172602 22 0 0.0 6.4 0.00 0.00 0.00 33 1012.7
20260504172101 22 0 0.0 8.0 0.00 0.00 0.00 33 1012.8
20260504171556 22 0 0.0 8.0 0.00 0.00 0.00 34 1012.8
20260504171057 22 0 0.0 8.0 0.00 0.00 0.00 33 1012.8
20260504170559 22 0 0.0 3.2 0.00 0.00 0.00 34 1012.9
20260504151058 20 0 0.0 1.6 0.00 0.00 0.00 36 1014.1
20260504150600 20 0 0.0 3.2 0.00 0.00 0.00 36 1014.2
20260504141058 17 0 0.0 1.6 0.00 0.00 0.00 46 1014.4
20260504140603 17 0 0.0 1.6 0.00 0.00 0.00 46 1014.4
20260504140106 17 0 0.0 1.6 0.00 0.00 0.00 46 1014.4
20260504130557 15 0 0.0 3.2 0.00 0.00 0.00 51 1014.6
20260504110559 10 0 0.0 1.6 0.00 0.00 0.00 63 1015.3
20260504100557 10 0 0.0 1.6 0.00 0.00 0.00 63 1015.1
20260504081611 10 0 0.0 0.0 0.00 0.00 0.00 62 1015.6
20260504081059 10 0 0.0 0.0 0.00 0.00 0.00 62 1015.7
20260504080557 10 0 0.0 1.6 0.00 0.00 0.00 62 1015.6
20260504060107 8 0 0.0 0.0 0.00 0.00 0.00 61 1015.8
20260504050556 9 0 0.0 0.0 0.00 0.00 0.00 59 1015.7
20260504050108 9 0 0.0 0.0 0.00 0.00 0.00 59 1015.7
20260504045559 9 0 0.0 0.0 0.00 0.00 0.00 59 1015.7
20260504045057 8 0 0.0 0.0 0.00 0.00 0.00 59 1015.8
20260504044557 8 0 0.0 0.0 0.00 0.00 0.00 59 1015.7
20260504044057 8 0 0.0 0.0 0.00 0.00 0.00 60 1015.9
20260504043602 8 0 0.0 0.0 0.00 0.00 0.00 60 1015.9
20260504043103 8 0 0.0 0.0 0.00 0.00 0.00 62 1015.8
20260504042556 7 0 0.0 0.0 0.00 0.00 0.00 62 1015.8
20260504042057 7 0 0.0 0.0 0.00 0.00 0.00 63 1015.9